• In Hungary
  • List of Countries
  • For 7 days
  • Water Temperature
  • Satellite Maps
  • Weather Map
  • News
  • Weather Widgets
  • user-avatar
    Login

    Hourly Weather Ust-Kulom

    Today, 26 May, Saturday

    Time Temperature Precipitation Wind Pressure Humidity
    00:00 +1°C° 0 mm 1 mps 759 mmHg 64%
    01:00 0°C° 0 mm 1 mps 759 mmHg 65%
    02:00 +1°C° 0 mm 1 mps 759 mmHg 65%
    03:00 +1°C° 0 mm 1 mps 759 mmHg 65%
    04:00 -1°C° 0 mm 2 mps 759 mmHg 65%
    05:00 +2°C° 0 mm 2 mps 759 mmHg 60%
    06:00 +3°C° 0 mm 2 mps 759 mmHg 54%
    07:00 +4°C° 0 mm 3 mps 759 mmHg 49%
    08:00 +7°C° 0 mm 3 mps 758 mmHg 46%
    09:00 +9°C° 0 mm 3 mps 758 mmHg 44%
    10:00 +11°C° 0 mm 3 mps 758 mmHg 42%
    11:00 +12°C° 0 mm 3 mps 757 mmHg 41%
    12:00 +12°C° 0 mm 3 mps 757 mmHg 41%
    13:00 +13°C° 0 mm 3 mps 756 mmHg 40%
    14:00 +14°C° 0 mm 3 mps 756 mmHg 39%
    15:00 +15°C° 0 mm 4 mps 755 mmHg 39%
    16:00 +17°C° 0 mm 4 mps 755 mmHg 38%
    17:00 +16°C° 0 mm 3 mps 754 mmHg 43%
    18:00 +14°C° 0 mm 3 mps 753 mmHg 48%
    19:00 +13°C° 0 mm 3 mps 752 mmHg 54%
    20:00 +12°C° 0 mm 3 mps 751 mmHg 57%
    21:00 +12°C° 0 mm 3 mps 751 mmHg 61%
    22:00 +11°C° 0 mm 3 mps 750 mmHg 64%
    23:00 +11°C° 0.1 mm 4 mps 749 mmHg 66%

    Tomorrow, 27 May, Sunday

    Time Temperature Precipitation Wind Pressure Humidity
    00:00 +11°C° 0.1 mm 4 mps 748 mmHg 68%
    01:00 +11°C° 0.1 mm 4 mps 748 mmHg 69%
    02:00 +11°C° 0 mm 4 mps 748 mmHg 73%
    03:00 +10°C° 0 mm 3 mps 748 mmHg 76%
    04:00 +10°C° 0 mm 3 mps 748 mmHg 80%
    05:00 +9°C° 0.1 mm 3 mps 748 mmHg 76%
    06:00 +9°C° 0.1 mm 2 mps 748 mmHg 72%
    07:00 +8°C° 0.1 mm 2 mps 748 mmHg 68%
    08:00 +9°C° 0 mm 2 mps 748 mmHg 61%
    09:00 +10°C° 0 mm 2 mps 748 mmHg 54%
    10:00 +10°C° 0 mm 2 mps 747 mmHg 48%
    11:00 +11°C° 0 mm 3 mps 747 mmHg 44%
    12:00 +12°C° 0 mm 4 mps 747 mmHg 40%
    13:00 +13°C° 0 mm 4 mps 747 mmHg 36%
    14:00 +12°C° 0 mm 5 mps 746 mmHg 36%
    15:00 +12°C° 0 mm 5 mps 746 mmHg 36%
    16:00 +12°C° 0 mm 5 mps 746 mmHg 36%
    17:00 +10°C° 0 mm 5 mps 746 mmHg 37%
    18:00 +10°C° 0 mm 5 mps 746 mmHg 37%
    19:00 +10°C° 0 mm 4 mps 746 mmHg 37%
    20:00 +8°C° 0 mm 4 mps 746 mmHg 45%
    21:00 +7°C° 0 mm 3 mps 747 mmHg 53%
    22:00 +5°C° 0 mm 3 mps 747 mmHg 61%
    23:00 +4°C° 0 mm 3 mps 747 mmHg 62%

    Day after tomorrow, 28 May, Monday

    Time Temperature Precipitation Wind Pressure Humidity
    00:00 +3°C° 0 mm 3 mps 747 mmHg 63%
    01:00 +2°C° 0 mm 3 mps 748 mmHg 64%
    02:00 +2°C° 0 mm 3 mps 748 mmHg 65%
    03:00 +1°C° 0 mm 3 mps 748 mmHg 66%
    04:00 +1°C° 0 mm 3 mps 748 mmHg 67%
    05:00 0°C° 0 mm 4 mps 748 mmHg 64%
    06:00 +1°C° 0 mm 4 mps 748 mmHg 61%
    07:00 +2°C° 0 mm 5 mps 748 mmHg 58%
    08:00 +3°C° 0 mm 5 mps 748 mmHg 55%
    09:00 +3°C° 0 mm 5 mps 749 mmHg 52%
    10:00 +5°C° 0 mm 5 mps 749 mmHg 49%
    11:00 +4°C° 0 mm 6 mps 749 mmHg 47%
    12:00 +5°C° 0 mm 6 mps 749 mmHg 46%
    13:00 +5°C° 0 mm 6 mps 749 mmHg 45%
    14:00 +5°C° 0.1 mm 6 mps 749 mmHg 45%
    15:00 +5°C° 0.1 mm 6 mps 749 mmHg 46%
    16:00 +5°C° 0.1 mm 6 mps 750 mmHg 46%
    17:00 +5°C° 0.1 mm 6 mps 750 mmHg 48%
    18:00 +6°C° 0.1 mm 5 mps 750 mmHg 51%
    19:00 +5°C° 0.1 mm 5 mps 750 mmHg 53%
    20:00 +4°C° 0 mm 4 mps 750 mmHg 58%
    21:00 +3°C° 0 mm 3 mps 750 mmHg 63%
    22:00 +2°C° 0 mm 3 mps 750 mmHg 68%
    23:00 +1°C° 0 mm 3 mps 750 mmHg 71%

    29 May, Tuesday

    Time Temperature Precipitation Wind Pressure Humidity
    00:00 0°C° 0 mm 3 mps 750 mmHg 73%
    01:00 0°C° 0 mm 3 mps 750 mmHg 76%
    02:00 0°C° 0 mm 3 mps 750 mmHg 78%
    03:00 -1°C° 0 mm 3 mps 750 mmHg 80%
    04:00 -1°C° 0 mm 3 mps 750 mmHg 82%
    05:00 0°C° 0 mm 3 mps 750 mmHg 77%
    06:00 +1°C° 0 mm 3 mps 750 mmHg 71%
    07:00 +2°C° 0 mm 3 mps 750 mmHg 65%
    08:00 +3°C° 0 mm 4 mps 750 mmHg 61%
    09:00 +4°C° 0 mm 4 mps 749 mmHg 58%
    10:00 +4°C° 0 mm 4 mps 749 mmHg 54%
    11:00 +5°C° 0 mm 4 mps 749 mmHg 50%
    12:00 +6°C° 0 mm 4 mps 749 mmHg 45%
    13:00 +8°C° 0 mm 4 mps 749 mmHg 41%
    14:00 +7°C° 0 mm 4 mps 749 mmHg 42%
    15:00 +7°C° 0 mm 4 mps 749 mmHg 42%
    16:00 +7°C° 0 mm 4 mps 749 mmHg 42%
    17:00 +7°C° 0 mm 4 mps 749 mmHg 43%
    18:00 +6°C° 0 mm 4 mps 749 mmHg 44%
    19:00 +6°C° 0 mm 4 mps 749 mmHg 45%
    20:00 +4°C° 0 mm 3 mps 749 mmHg 53%
    21:00 +3°C° 0 mm 2 mps 749 mmHg 61%
    22:00 +2°C° 0 mm 2 mps 749 mmHg 68%
    23:00 +1°C° 0 mm 2 mps 749 mmHg 72%

    30 May, Wednesday

    Time Temperature Precipitation Wind Pressure Humidity
    00:00 -1°C° 0 mm 2 mps 749 mmHg 76%
    01:00 -1°C° 0 mm 2 mps 750 mmHg 80%
    02:00 0°C° 0 mm 1 mps 750 mmHg 81%
    03:00 0°C° 0 mm 1 mps 750 mmHg 83%
    04:00 0°C° 0 mm 1 mps 750 mmHg 85%
    05:00 +1°C° 0 mm 2 mps 750 mmHg 76%
    06:00 +2°C° 0 mm 2 mps 750 mmHg 66%
    07:00 +4°C° 0 mm 2 mps 750 mmHg 57%
    08:00 +4°C° 0 mm 2 mps 749 mmHg 53%
    09:00 +4°C° 0 mm 3 mps 749 mmHg 49%
    10:00 +5°C° 0 mm 3 mps 749 mmHg 45%
    11:00 +7°C° 0 mm 3 mps 749 mmHg 42%
    12:00 +8°C° 0 mm 3 mps 748 mmHg 40%
    13:00 +9°C° 0 mm 3 mps 748 mmHg 37%
    14:00 +9°C° 0 mm 2 mps 748 mmHg 36%
    15:00 +10°C° 0 mm 2 mps 747 mmHg 35%
    16:00 +10°C° 0 mm 2 mps 747 mmHg 33%
    17:00 +10°C° 0 mm 2 mps 747 mmHg 35%
    18:00 +11°C° 0 mm 1 mps 746 mmHg 36%
    19:00 +10°C° 0 mm 1 mps 746 mmHg 37%
    20:00 +9°C° 0 mm 1 mps 745 mmHg 42%
    21:00 +7°C° 0 mm 1 mps 745 mmHg 48%
    22:00 +6°C° 0 mm 1 mps 744 mmHg 54%
    23:00 +6°C° 0 mm 1 mps 743 mmHg 57%

    31 May, Thursday

    Time Temperature Precipitation Wind Pressure Humidity
    00:00 +4°C° 0 mm 2 mps 743 mmHg 60%
    01:00 +4°C° 0 mm 2 mps 742 mmHg 62%
    02:00 +4°C° 0.2 mm 2 mps 741 mmHg 67%
    03:00 +5°C° 0.2 mm 1 mps 741 mmHg 72%
    04:00 +4°C° 0.2 mm 1 mps 740 mmHg 77%
    05:00 +5°C° 0.4 mm 1 mps 740 mmHg 78%
    06:00 +5°C° 0.4 mm 1 mps 739 mmHg 79%
    07:00 +5°C° 0.4 mm 1 mps 739 mmHg 80%
    08:00 +5°C° 0.6 mm 2 mps 739 mmHg 79%
    09:00 +6°C° 0.6 mm 2 mps 739 mmHg 78%
    10:00 +6°C° 0.6 mm 2 mps 739 mmHg 76%
    11:00 +7°C° 0.4 mm 2 mps 739 mmHg 72%
    12:00 +8°C° 0.4 mm 2 mps 740 mmHg 68%
    13:00 +9°C° 0.4 mm 2 mps 740 mmHg 64%
    14:00 +9°C° 0.4 mm 2 mps 740 mmHg 61%
    15:00 +10°C° 0.4 mm 3 mps 741 mmHg 58%
    16:00 +11°C° 0.4 mm 3 mps 741 mmHg 55%
    17:00 +10°C° 0.2 mm 3 mps 741 mmHg 56%
    18:00 +10°C° 0.2 mm 3 mps 742 mmHg 57%
    19:00 +9°C° 0.2 mm 3 mps 742 mmHg 57%
    20:00 +8°C° 0 mm 3 mps 742 mmHg 61%
    21:00 +5°C° 0 mm 3 mps 743 mmHg 66%
    22:00 +5°C° 0 mm 2 mps 743 mmHg 70%
    23:00 +4°C° 0 mm 2 mps 743 mmHg 72%
    Show more